Home   Weather   Township of Washington   Past weeks
Flag for USA

Past Weather in Township of Washington, Kansas, USA — Yesterday and Last 2 Weeks

Now
60 °F

Fog.


Feels Like: 60 °F
Forecast: 79 / 65 °F
Wind: 5 mph from Southeast

Location: Forbes Field

Current Time: May 26, 2019 at 6:36:52 am

Latest Report: May 26, 2019 at 6:04 am


Visibility: 3 mi

Pressure: 30.00 "Hg

Humidity: 93%

Dew Point: 58 °F

Location of Township of WashingtonLocation

Past Weather in Township of Washington — Graph

°F

Township of Washington Temperature Yesterday

Maximum temperature yesterday: 80 °F (at 12:53 pm)
Minimum temperature yesterday: 64 °F (at 6:53 am)
Average temperature yesterday: 72 °F

High & Low Weather Summary for the Past Weeks

 TemperatureHumidityPressure
High90 °F (May 16, 2:53 pm)97% (May 13, 4:53 am)30.09 "Hg (May 13, 4:53 am)
Low43 °F (May 13, 2:53 am)38% (May 16, 4:53 pm)29.34 "Hg (May 21, 5:53 pm)
Average64 °F76%29.82 "Hg
* Reported May 11 5:53 am — May 26 5:21 am, Township of Washington. Weather by CustomWeather, © 2019

Note: Actual official high and low records may vary slightly from our data, if they occured in-between our weather recording intervals... More about our weather records

Advertising

Township of Washington Weather History for the Previous 24 Hours

Scroll right to see more
 ConditionsComfort  
Time TempWeatherWind HumidityBarometerVisibility
5:21 am
Sun, May 26
61 °FClear.No wind97%29.97 "Hg7 mi
5:13 am61 °FFog.No wind93%29.96 "Hg2 mi
5:05 am61 °FFog.No wind93%29.96 "Hg1 mi
4:56 am62 °FFog.No wind93%29.96 "Hg1 mi
3:53 am64 °FPassing clouds.5 mph90%29.94 "Hg10 mi
2:53 am65 °FOvercast.7 mph91%29.94 "Hg10 mi
1:53 am65 °FOvercast.9 mph91%29.93 "Hg10 mi
12:53 am65 °FPassing clouds.No wind94%29.99 "Hg10 mi
11:53 pm
Sat, May 25
66 °FLight rain. Mostly cloudy.8 mph87%29.97 "Hg10 mi
11:25 pm66 °FThunderstorms. Overcast.16 mph87%30.05 "Hg9 mi
11:08 pm66 °FThunderstorms. Mostly cloudy.17 mph87%30.05 "Hg7 mi
10:37 pm70 °FThunderstorms. Mostly cloudy.17 mph79%30.04 "Hg7 mi
10:21 pm75 °FThundershowers. Overcast.23 mph85%29.97 "Hg8 mi
9:53 pm74 °FPartly cloudy.9 mph88%29.89 "Hg10 mi
9:37 pm74 °FThundershowers. Partly cloudy.7 mph88%29.93 "Hg9 mi
8:53 pm75 °FOvercast.No wind85%29.92 "Hg10 mi
7:53 pm76 °FOvercast.8 mph82%29.92 "Hg10 mi
6:53 pm77 °FOvercast.8 mph77%29.91 "Hg10 mi
5:53 pm77 °FOvercast.13 mph79%29.93 "Hg10 mi
5:26 pm76 °FOvercast.9 mph82%29.95 "Hg10 mi
5:03 pm75 °FOvercast.12 mph82%29.96 "Hg6 mi
4:53 pm77 °FMore clouds than sun.10 mph77%29.94 "Hg10 mi
4:10 pm78 °FOvercast.8 mph74%29.96 "Hg10 mi
3:53 pm79 °FOvercast.10 mph69%29.93 "Hg10 mi
2:53 pm79 °FOvercast.9 mph69%29.95 "Hg10 mi
1:53 pm79 °FMostly cloudy.15 mph69%29.94 "Hg10 mi
12:53 pm80 °FPartly sunny.17 mph67%29.95 "Hg10 mi
12:08 pm77 °FPartly sunny.16 mph69%29.99 "Hg10 mi
11:53 am78 °FScattered clouds.21 mph69%29.96 "Hg10 mi
10:53 am76 °FSunny.17 mph69%29.96 "Hg10 mi
9:53 am73 °FPassing clouds.15 mph74%29.96 "Hg10 mi
8:53 am70 °FPassing clouds.14 mph79%29.96 "Hg10 mi
7:53 am68 °FSunny.15 mph82%29.95 "Hg10 mi
6:53 am64 °FSunny.8 mph90%29.94 "Hg10 mi
Weather by CustomWeather, © 2019

See weather overview